Location: Mentone
(34.5413°N, 85.5351°W)
Time: 02:30:06
(UTC-05:00)

ADEOS Rocket - Visible Passes

Search period start: 16 April 2014 00:00
Search period end: 26 April 2014 00:00
Orbit: 859 x 1307 km, 98.8° (Epoch: 14 April)

Date Brightness Start Highest point End Pass type
(mag) Time Alt. Az. Time Alt. Az. Time Alt. Az.
16 Apr 4.1 22:42:41 35° N 22:42:41 35° N 22:46:03 10° N visible
17 Apr 4.2 21:53:03 26° NE 21:53:03 26° NE 21:56:37 10° N visible
17 Apr 5.0 23:40:00 20° NW 23:40:00 20° NW 23:42:08 10° NW visible
18 Apr 4.9 21:03:24 11° ENE 21:03:26 11° ENE 21:05:03 10° NE visible
18 Apr 4.1 22:50:21 38° NNW 22:50:21 38° NNW 22:53:56 10° NNW visible
19 Apr 4.0 22:00:43 31° NE 22:00:43 31° NE 22:04:42 10° N visible
19 Apr 5.1 23:47:40 18° NW 23:47:40 18° NW 23:49:45 10° NW visible
20 Apr 4.8 21:11:04 14° ENE 21:11:06 14° ENE 21:13:59 10° NNE visible
20 Apr 4.1 22:58:01 39° NNW 22:58:01 39° NNW 23:01:48 10° NNW visible
21 Apr 3.8 22:08:23 37° NE 22:08:23 37° NE 22:12:45 10° N visible
21 Apr 5.2 23:55:20 17° WNW 23:55:20 17° WNW 23:57:18 10° NW visible
22 Apr 4.6 21:18:44 17° ENE 21:18:46 17° ENE 21:22:30 10° NNE visible
22 Apr 4.1 23:05:41 39° NW 23:05:41 39° NW 23:09:38 10° NNW visible
23 Apr 3.6 22:16:03 44° NNE 22:16:03 44° NNE 22:20:47 10° N visible
24 Apr 5.3 00:03:00 15° WNW 00:03:00 15° WNW 00:04:46 10° NW visible
24 Apr 4.4 21:26:25 20° ENE 21:26:27 20° ENE 21:30:51 10° NNE visible
24 Apr 4.2 23:13:22 37° NW 23:13:22 37° NW 23:17:27 10° NNW visible
25 Apr 3.5 22:23:44 52° NNE 22:23:44 52° NNE 22:28:46 10° N visible
